N890DA TTPP-MTPP

Flight info

Callsign N890DA
Flight time N/A
Altitude 46000
Route POS UL337 ARMUR L337 NEGON UL337 TILIG DCT KENOK KENOK1D
Aircraft GLF5/M-SBDE2E3FGHIJ3J4J5P2RWXY/LB1D1

Departure

Time N/A
Airport Piarco International Airport (TTPP)

Arrival

Time 2026-04-30 19:33
Airport Toussaint Louverture International Airport (MTPP)
Time Latitude Longitude Altitude Speed Heading
2026-04-30 17:39 11.05855 -61.98822 35884 ft 446 kts 314°
2026-04-30 17:41 11.23556 -62.16709 42472 ft 429 kts 312°
2026-04-30 17:42 11.27842 -62.21044 43719 ft 427 kts 311°
2026-04-30 17:42 11.34130 -62.27409 45656 ft 421 kts 311°
2026-04-30 17:43 11.38341 -62.31676 45901 ft 432 kts 311°
2026-04-30 17:44 11.51277 -62.44783 47715 ft 414 kts 311°
2026-04-30 17:46 11.61949 -62.55618 47898 ft 436 kts 311°
2026-04-30 17:47 11.70815 -62.64623 47888 ft 433 kts 311°
2026-04-30 17:48 11.85669 -62.79734 47888 ft 432 kts 311°
2026-04-30 17:50 12.03070 -62.97467 47887 ft 430 kts 311°
2026-04-30 17:52 12.15977 -63.10641 47886 ft 428 kts 311°
2026-04-30 17:54 12.35156 -63.30255 47885 ft 430 kts 311°
2026-04-30 17:56 12.52301 -63.47821 47880 ft 430 kts 311°
2026-04-30 17:58 12.65207 -63.61067 47876 ft 429 kts 311°
2026-04-30 18:00 12.82297 -63.78637 47889 ft 430 kts 311°
2026-04-30 18:01 12.92916 -63.89572 47894 ft 431 kts 311°
2026-04-30 18:02 13.05700 -64.02754 47902 ft 431 kts 311°
2026-04-30 18:04 13.18381 -64.15852 47902 ft 431 kts 311°
2026-04-30 18:06 13.35468 -64.33533 47901 ft 431 kts 311°
2026-04-30 18:08 13.50222 -64.48855 47887 ft 432 kts 311°
2026-04-30 18:10 13.67148 -64.66489 47898 ft 428 kts 311°
2026-04-30 18:11 13.81881 -64.81868 47901 ft 428 kts 310°
2026-04-30 18:13 13.92321 -64.92807 47903 ft 428 kts 310°
2026-04-30 18:14 14.02738 -65.03829 47903 ft 428 kts 310°
2026-04-30 18:15 14.15318 -65.17076 47901 ft 428 kts 311°
2026-04-30 18:16 14.23723 -65.25897 47880 ft 428 kts 310°
2026-04-30 18:17 14.27942 -65.30330 47886 ft 428 kts 310°
2026-04-30 18:18 14.34239 -65.36948 47891 ft 427 kts 311°
2026-04-30 18:18 14.38477 -65.41406 47885 ft 428 kts 311°
2026-04-30 18:19 14.42653 -65.45802 47883 ft 429 kts 311°
2026-04-30 18:19 14.46813 -65.50183 47885 ft 429 kts 311°
2026-04-30 18:20 14.50985 -65.54578 47881 ft 427 kts 311°
2026-04-30 18:20 14.55158 -65.58979 47891 ft 427 kts 311°
2026-04-30 18:21 14.59319 -65.63367 47887 ft 428 kts 311°
2026-04-30 18:21 14.63491 -65.67770 47896 ft 429 kts 310°
2026-04-30 18:22 14.67670 -65.72182 47904 ft 428 kts 310°
2026-04-30 18:22 14.73935 -65.78801 47901 ft 426 kts 310°
2026-04-30 18:23 14.78080 -65.83183 47900 ft 424 kts 310°
2026-04-30 18:23 14.82225 -65.87569 47905 ft 426 kts 310°
2026-04-30 18:24 14.88447 -65.94157 47902 ft 425 kts 310°
2026-04-30 18:25 14.92623 -65.98583 47902 ft 425 kts 310°
2026-04-30 18:25 14.98836 -66.05170 47907 ft 426 kts 310°
2026-04-30 18:26 15.05054 -66.11766 47898 ft 427 kts 311°
2026-04-30 18:27 15.11326 -66.18329 47894 ft 428 kts 311°
2026-04-30 18:28 15.17638 -66.24939 47898 ft 428 kts 311°
2026-04-30 18:28 15.23908 -66.31511 47900 ft 428 kts 311°
2026-04-30 18:29 15.32297 -66.40313 47897 ft 428 kts 311°
2026-04-30 18:30 15.40710 -66.49151 47896 ft 429 kts 311°
2026-04-30 18:31 15.47027 -66.55795 47890 ft 428 kts 311°
2026-04-30 18:32 15.53290 -66.62387 47887 ft 428 kts 311°
2026-04-30 18:33 15.59098 -66.69463 47893 ft 427 kts 306°
2026-04-30 18:33 15.64764 -66.76577 47886 ft 425 kts 307°
2026-04-30 18:34 15.70419 -66.83684 47893 ft 425 kts 307°
2026-04-30 18:35 15.74173 -66.88406 47900 ft 425 kts 306°
2026-04-30 18:35 15.77933 -66.93140 47890 ft 426 kts 307°
2026-04-30 18:36 15.83610 -67.00289 47902 ft 425 kts 307°
2026-04-30 18:37 15.89246 -67.07397 47905 ft 424 kts 306°
2026-04-30 18:37 15.93005 -67.12141 47895 ft 424 kts 307°
2026-04-30 18:38 15.96764 -67.16888 47900 ft 424 kts 306°
2026-04-30 18:38 16.00534 -67.21652 47898 ft 424 kts 306°
2026-04-30 18:39 16.04304 -67.26417 47899 ft 424 kts 306°
2026-04-30 18:39 16.08058 -67.31169 47901 ft 424 kts 306°
2026-04-30 18:40 16.11815 -67.35925 47897 ft 423 kts 306°
2026-04-30 18:40 16.15554 -67.40662 47897 ft 423 kts 306°
2026-04-30 18:41 16.19293 -67.45403 47896 ft 424 kts 306°
2026-04-30 18:41 16.23073 -67.50198 47898 ft 424 kts 306°
2026-04-30 18:42 16.26818 -67.54952 47901 ft 424 kts 306°
2026-04-30 18:42 16.32439 -67.62095 47898 ft 423 kts 306°
2026-04-30 18:45 16.53018 -67.88302 47909 ft 425 kts 306°
2026-04-30 18:46 16.56756 -67.93072 47899 ft 425 kts 306°
2026-04-30 18:46 16.60514 -67.97871 47905 ft 425 kts 305°
2026-04-30 18:47 16.64250 -68.02643 47911 ft 424 kts 306°
2026-04-30 18:47 16.68061 -68.07509 47914 ft 424 kts 306°
2026-04-30 18:48 16.71794 -68.12279 47915 ft 425 kts 306°
2026-04-30 18:48 16.75535 -68.17061 47917 ft 424 kts 306°
2026-04-30 18:49 16.79306 -68.21886 47912 ft 424 kts 306°
2026-04-30 18:49 16.83031 -68.26657 47911 ft 424 kts 305°
2026-04-30 18:50 16.86799 -68.31484 47911 ft 426 kts 305°
2026-04-30 18:50 16.90545 -68.36287 47909 ft 426 kts 305°
2026-04-30 18:51 16.94278 -68.41077 47916 ft 426 kts 305°
2026-04-30 18:51 16.98037 -68.45902 47905 ft 424 kts 306°
2026-04-30 18:52 17.01791 -68.50726 47902 ft 425 kts 305°
2026-04-30 18:52 17.05536 -68.55541 47904 ft 426 kts 305°
2026-04-30 18:53 17.09275 -68.60352 47891 ft 426 kts 305°
2026-04-30 18:53 17.13060 -68.65227 47895 ft 427 kts 305°
2026-04-30 18:54 17.16874 -68.70141 47906 ft 427 kts 305°
2026-04-30 18:54 17.20620 -68.74970 47913 ft 427 kts 305°
2026-04-30 18:55 17.24393 -68.79839 47901 ft 429 kts 305°
2026-04-30 18:55 17.30065 -68.87164 47903 ft 429 kts 305°
2026-04-30 18:56 17.35741 -68.94502 47906 ft 429 kts 305°
2026-04-30 18:57 17.41071 -69.01999 47894 ft 422 kts 288°
2026-04-30 18:57 17.42740 -69.07984 47916 ft 424 kts 284°
2026-04-30 18:58 17.45065 -69.16933 47900 ft 424 kts 283°
2026-04-30 18:59 17.47373 -69.25867 47902 ft 423 kts 283°
2026-04-30 19:00 17.50471 -69.37891 47871 ft 418 kts 283°
2026-04-30 19:00 17.51963 -69.43694 47823 ft 404 kts 283°
2026-04-30 19:01 17.53441 -69.49450 47790 ft 406 kts 283°
2026-04-30 19:02 17.55686 -69.58209 47379 ft 419 kts 283°
2026-04-30 19:02 17.57191 -69.64086 46457 ft 412 kts 283°
2026-04-30 19:03 17.58669 -69.69865 45526 ft 402 kts 283°
2026-04-30 19:03 17.60135 -69.75610 44654 ft 407 kts 283°
2026-04-30 19:04 17.61612 -69.81403 43724 ft 410 kts 282°
2026-04-30 19:04 17.63095 -69.87226 42803 ft 408 kts 282°
2026-04-30 19:05 17.64569 -69.93023 41904 ft 407 kts 282°
2026-04-30 19:05 17.66020 -69.98737 41009 ft 407 kts 282°
2026-04-30 19:06 17.67483 -70.04504 40126 ft 407 kts 282°
2026-04-30 19:06 17.68213 -70.07383 39681 ft 406 kts 281°
2026-04-30 19:06 17.69657 -70.13088 38785 ft 406 kts 281°
2026-04-30 19:07 17.71108 -70.18828 37907 ft 406 kts 281°
2026-04-30 19:07 17.71831 -70.21692 37532 ft 407 kts 281°
2026-04-30 19:08 17.73042 -70.26492 36788 ft 408 kts 281°
2026-04-30 19:08 17.74735 -70.33213 35737 ft 409 kts 281°
2026-04-30 19:08 17.75461 -70.36095 35285 ft 409 kts 281°
2026-04-30 19:09 17.76917 -70.41883 34374 ft 411 kts 281°
2026-04-30 19:09 17.77650 -70.44801 33924 ft 413 kts 281°
2026-04-30 19:09 17.78384 -70.47726 33462 ft 414 kts 281°
2026-04-30 19:10 17.79856 -70.53593 32562 ft 416 kts 281°
2026-04-30 19:10 17.81333 -70.59496 31647 ft 417 kts 281°
2026-04-30 19:11 17.82066 -70.62426 31190 ft 417 kts 281°
2026-04-30 19:11 17.83557 -70.68391 30278 ft 422 kts 281°
2026-04-30 19:11 17.84306 -70.71384 29808 ft 419 kts 281°
2026-04-30 19:12 17.85033 -70.74297 29350 ft 413 kts 281°
2026-04-30 19:12 17.85758 -70.77206 28895 ft 407 kts 282°
2026-04-30 19:12 17.86470 -70.80064 28463 ft 404 kts 282°
2026-04-30 19:13 17.87886 -70.85750 27590 ft 403 kts 281°
2026-04-30 19:13 17.89296 -70.91421 26699 ft 403 kts 281°
2026-04-30 19:13 17.90005 -70.94275 26250 ft 401 kts 281°
2026-04-30 19:14 17.90710 -70.97117 25802 ft 401 kts 281°
2026-04-30 19:14 17.91408 -70.99928 25363 ft 399 kts 281°
2026-04-30 19:14 17.92110 -71.02762 24925 ft 398 kts 281°
2026-04-30 19:14 17.92800 -71.05547 24494 ft 398 kts 281°
2026-04-30 19:15 17.93498 -71.08367 24061 ft 398 kts 281°
2026-04-30 19:15 17.94897 -71.14023 23201 ft 397 kts 281°
2026-04-30 19:15 17.95589 -71.16829 22776 ft 396 kts 281°
2026-04-30 19:16 17.96282 -71.19630 22353 ft 396 kts 281°
2026-04-30 19:16 17.96970 -71.22424 21931 ft 395 kts 281°
2026-04-30 19:16 17.98347 -71.28009 21080 ft 388 kts 281°
2026-04-30 19:17 17.99020 -71.30746 20655 ft 387 kts 281°
2026-04-30 19:17 18.00365 -71.36213 19791 ft 384 kts 282°
2026-04-30 19:17 18.01032 -71.38930 19357 ft 382 kts 282°
2026-04-30 19:18 18.01908 -71.42493 18793 ft 378 kts 282°
2026-04-30 19:18 18.02999 -71.46940 18086 ft 375 kts 282°
2026-04-30 19:18 18.03641 -71.49561 17676 ft 375 kts 283°
2026-04-30 19:19 18.04288 -71.52203 17257 ft 372 kts 283°
2026-04-30 19:19 18.04932 -71.54835 16841 ft 372 kts 283°
2026-04-30 19:19 18.06389 -71.60075 15612 ft 370 kts 296°
2026-04-30 19:20 18.07995 -71.62111 14683 ft 365 kts 317°
2026-04-30 19:20 18.09927 -71.63643 13730 ft 330 kts 324°
2026-04-30 19:20 18.13604 -71.66042 12359 ft 304 kts 328°
2026-04-30 19:21 18.15466 -71.67169 11935 ft 300 kts 329°
2026-04-30 19:21 18.19245 -71.69400 11267 ft 298 kts 329°
2026-04-30 19:22 18.22903 -71.71538 10632 ft 287 kts 330°
2026-04-30 19:22 18.28107 -71.74571 9677 ft 274 kts 330°
2026-04-30 19:23 18.33095 -71.77480 8716 ft 268 kts 331°
2026-04-30 19:24 18.36352 -71.79380 8097 ft 264 kts 331°
2026-04-30 19:24 18.37965 -71.80321 7785 ft 263 kts 332°
2026-04-30 19:24 18.41170 -71.82192 7174 ft 259 kts 332°
2026-04-30 19:25 18.45939 -71.84976 6281 ft 256 kts 332°
2026-04-30 19:26 18.49057 -71.86798 5699 ft 254 kts 331°
2026-04-30 19:26 18.51792 -71.89057 5262 ft 248 kts 295°
2026-04-30 19:26 18.52344 -71.90745 5279 ft 242 kts 288°
2026-04-30 19:27 18.53355 -71.94174 5193 ft 246 kts 288°
2026-04-30 19:27 18.54361 -71.97633 4556 ft 246 kts 288°
2026-04-30 19:28 18.54869 -71.99386 4266 ft 245 kts 288°
2026-04-30 19:28 18.55845 -72.02766 4162 ft 238 kts 288°
2026-04-30 19:29 18.56805 -72.06090 3831 ft 231 kts 288°
2026-04-30 19:29 18.57265 -72.07685 3588 ft 229 kts 288°
2026-04-30 19:30 18.58631 -72.12432 2883 ft 220 kts 288°
2026-04-30 19:30 18.58699 -72.15565 2461 ft 208 kts 268°
2026-04-30 19:31 18.58542 -72.18583 1926 ft 202 kts 268°
2026-04-30 19:31 18.58470 -72.19971 1658 ft 175 kts 268°
2026-04-30 19:31 18.58347 -72.22409 1255 ft 157 kts 268°
2026-04-30 19:32 18.58292 -72.23457 1027 ft 133 kts 270°
2026-04-30 19:32 18.58244 -72.24401 860 ft 126 kts 268°
2026-04-30 19:32 18.58199 -72.25328 716 ft 126 kts 269°
2026-04-30 19:32 18.58153 -72.26247 544 ft 122 kts 268°
2026-04-30 19:33 18.58104 -72.27148 375 ft 125 kts 269°
2026-04-30 19:33 18.58066 -72.28050 224 ft 121 kts 268°
2026-04-30 19:33 18.58028 -72.28822 190 ft 77 kts 267°
2026-04-30 19:33 18.58011 -72.29349 182 ft 43 kts 266°
2026-04-30 19:34 18.57934 -72.29469 181 ft 16 kts 178°
2026-04-30 19:34 18.57823 -72.29462 181 ft 14 kts 175°
2026-04-30 19:34 18.57680 -72.29529 182 ft 12 kts 267°
2026-04-30 19:35 18.57676 -72.29615 181 ft 11 kts 266°
2026-04-30 19:35 18.57671 -72.29694 181 ft 10 kts 266°
2026-04-30 19:35 18.57668 -72.29761 181 ft 4 kts 269°
2026-04-30 19:35 18.57662 -72.29775 181 ft 1 kts 213°
2026-04-30 19:36 18.57657 -72.29775 181 ft 1 kts 179°
2026-04-30 19:36 18.57642 -72.29775 181 ft 1 kts 177°
2026-04-30 19:36 18.57626 -72.29774 182 ft 1 kts 177°
2026-04-30 19:37 18.57613 -72.29773 182 ft 1 kts 177°
2026-04-30 19:37 18.57612 -72.29772 182 ft 0 kts 177°